Regional Weather Roundup
Issued by NWS

Home | Current Version | Previous Version | Text Only | Print | Product List | Glossary Off
Versions: 1 2 3 4 5 6 7 8 9 10 11 12 13 14 15 16 17 18 19 20 21 22 23 24 25 26 27 28 29 30 31 32 33 34 35 36 37 38 39 40 41 42 43 44 45 46 47 48 49 50

000
ASUS43 KMKX 301011
RWRWI

WISCONSIN REGIONAL WEATHER ROUNDUP
NATIONAL WEATHER SERVICE MILWAUKEE/SULLIVAN WI
500 AM CDT THU JUL 30 2015

NOTE: "FAIR" INDICATES FEW OR NO CLOUDS BELOW 12,000 FEET WITH NO
SIGNIFICANT WEATHER AND/OR OBSTRUCTIONS TO VISIBILITY.

WIZ001-002-006>008-014>016-023>028-301100-
NORTHWEST WISCONSIN

CITY           SKY/WX    TMP DP  RH WIND       PRES   REMARKS
SUPERIOR ARPT  CLEAR     62  56  81 W9        29.92R
ASHLAND        CLEAR     62  56  80 SW9       29.90R
HAYWARD        CLEAR     62  55  77 CALM      29.95S
SIREN          CLEAR     63  55  76 W7        29.97R
CUMBERLAND     CLEAR     61  54  77 W6        29.98S
RICE LAKE      CLEAR     60  55  83 W5        29.99S
CHETEK         CLEAR     61  56  84 SW6       29.97S
LADYSMITH      CLEAR     62  55  78 SW6       29.98S
EAU CLAIRE     CLEAR     62  55  77 SW9       29.98S
MENOMONIE      CLEAR     64  56  74 W7        30.00S
NEW RICHMOND   CLEAR     61  55  78 W6        30.00S
OSCEOLA        CLEAR     64  56  74 W7        30.02R
$$

WIZ003>005-009-010-017-018-301100-
NORTH CENTRAL WISCONSIN

CITY           SKY/WX    TMP DP  RH WIND       PRES   REMARKS
MANITOWISH WTR CLEAR     61  54  77 W9        29.91S
ARBOR VITAE    CLEAR     62  55  76 W10       29.92R
WOODRUFF       CLEAR     62  55  76 W10       29.92R
RHINELANDER    CLEAR     61  53  75 W12       29.93S
EAGLE RIVER    CLEAR     62  51  66 W9        29.90R
LAND O LAKES   CLEAR     62  52  71 W7        29.90R
PHILLIPS       CLEAR     60  54  81 W3        29.94S
TOMAHAWK       CLEAR     62  53  73 W8        29.95R
MEDFORD        CLEAR     59  55  86 W7        29.97S
MERRILL        NOT AVBL
$$

WIZ029-030-035-036-043>047-301100-
CENTRAL WISCONSIN

CITY           SKY/WX    TMP DP  RH WIND       PRES   REMARKS
WAUSAU         CLEAR     64  55  72 NW13      29.94R
MOSINEE        CLEAR     61  55  82 W9        29.97S
MARSHFIELD     CLEAR     61  53  75 W7        29.98S
STEVENS POINT  CLEAR     63  54  72 W8        29.98R
WAUPACA        CLEAR     66  55  67 W7        29.96S
WAUTOMA        CLEAR     64  54  70 W5        29.99R
WISC RAPIDS    CLEAR     63  53  70 W8        29.99S
CAMP DOUGLAS   CLEAR     60  58  94 W7        30.00R
$$

WIZ011>013-019>022-031-037>040-048>050-301100-
NORTHEAST WISCONSIN

CITY           SKY/WX    TMP DP  RH WIND       PRES   REMARKS
ANTIGO         CLEAR     60  55  82 W10G16    29.94S
SHAWANO        CLEAR     66  55  67 W9        29.92S
OCONTO         CLEAR     62  56  82 W7        29.89R
STURGEON BAY   CLEAR     66  54  63 W12       29.91R
GREEN BAY      CLEAR     65  55  70 W8        29.92S
MANITOWOC      CLEAR     68  56  65 MISG      29.93R
APPLETON       CLEAR     61  52  72 W8        29.96R
CLINTONVILLE   CLEAR     63  54  72 W7        29.93S
OSHKOSH        CLEAR     67  54  63 W7        29.96R
$$

WIZ032>034-041-042-053>061-301100-
SOUTHWEST WISCONSIN

CITY           SKY/WX    TMP DP  RH WIND       PRES   REMARKS
LA CROSSE      CLEAR     69  55  60 W6        30.02S
SPARTA         CLEAR     60  54  83 CALM      30.02S
VIROQUA        CLEAR     60  57  90 W7        30.05S
BOSCOBEL       CLEAR     62  58  86 SW7       30.05R
PRAIRIE DU CHI CLEAR     64  56  77 NW5       30.06R
PLATTEVILLE    CLEAR     61  58  91 W7        30.07S
$$

WIZ056-057-062-063-064-067-068-301100-
SOUTH CENTRAL WISCONSIN

CITY           SKY/WX    TMP DP  RH WIND       PRES   REMARKS
REEDSBURG      CLEAR     64  56  77 SW5       30.02S
BARABOO/DELLS  CLEAR     62  54  76 SW6       30.02S
LONE ROCK      CLEAR     63  57  81 W3        30.04S
MINERAL POINT  CLEAR     61  59  94 W6        30.06S
MADISON        CLEAR     65  56  72 W6        30.01S
MIDDLETON      CLEAR     62  56  81 NW3       30.03S
WATERTOWN      CLEAR     63  58  83 W3        30.00S
MONROE         CLEAR     63  57  82 W14       30.05S
JANESVILLE     CLEAR     61  57  88 W3        30.02S
$$

WIZ051-052-058>065-066-070>072-301100-
SOUTHEAST WISCONSIN

CITY           SKY/WX    TMP DP  RH WIND       PRES   REMARKS
MILWAUKEE      CLEAR     68  54  60 W6        29.98S
WAUKESHA       CLEAR     63  54  72 W10       30.01R
MILWAUKEE/TIMM CLEAR     64  52  63 W9        29.99S
RACINE         CLEAR     65  54  67 W6        30.01R
BURLINGTON     CLEAR     62  54  76 W7        30.01R
KENOSHA        CLEAR     62  55  77 W8        30.01R
FOND DU LAC    CLEAR     65  55  70 W7        29.97S
SHEBOYGAN      CLEAR     67  55  65 W12       29.95R
WEST BEND      CLEAR     64  52  63 W10       29.98R
JUNEAU         CLEAR     57  54  89 SW7       30.01S
$$

LSZ147-162-301100-
LAKE SUPERIOR

STATION/POSITION TIME  TEMP    WIND        PRES    WAVE
                       AIR SEA DIR/SP/G            HT/PER
                 (UTC) (F)     (DEG/KT/KT) (MB)    (FT/S)
W MID LAKE BUOY  0950   62 54  260/ 23/ 27 1007.3R   5/ 5
DEVILS ISLAND    1000   63     250/ 22/ 26 1010.4R
PORT WING        0940   68     250/ 13/ 20 1012.2R
SAXON HARBOR     0900   68                 1010.8
$$

LMZ867-665-643>646-301100-
LAKE MICHIGAN

STATION/POSITION TIME  TEMP    WIND        PRES    WAVE
                       AIR SEA DIR/SP/G            HT/PER
                 (UTC) (F)     (DEG/KT/KT) (MB)    (FT/S)
CHAMBERS ISLAND  0900   68     210/  8/ 14 1010.8S
S GREEN BAY BUOY 1000   65 65  240/ 12/ 16 1013.5R
N MID LAKE BUOY  0950   71 69  260/ 19/ 23 1009.0R   3/ 4
NORTHPORT PIER   0900   71     240/  6/ 14 1010.2S
SISTER BAY       0814   72     280/ 21/ 24   N/A
ALGOMA LAKESHORE 0942          270/  6/ 11   N/A
SHEBOYGAN LAKESH 1000   70     260/ 11/ 14 1013.9R
PORT WASHINGTON  0900   68     270/  5/  9 1014.9
ATWATER BUOY     1000   69     260/ 10/ 14 1016.4R
MILWAUKEE LAKESH 0900   71     260/  7/ 10   N/A
KENOSHA   LAKESH 1000   68     270/ 10/ 12 1015.6R
$$

TC  - TEMPERATURE IN CELSIUS
VSB - VISIBILITY IN STATUTE MILES
WCI - WIND CHILL INDEX
HX  - HEAT INDEX




USA.gov is the U.S. government's official web portal to all federal, state and local government web resources and services.